Location: Unspecified
(50.7693°N, 0.0000°E)
Time: 17:31:29
(UTC+00:00)

Tiros 1 despin weight - All Passes

Search period start: 25 June 2019 00:00
Search period end: 05 July 2019 00:00
Orbit: 595 x 642 km, 48.2° (Epoch: 25 June)

Date Brightness Start Highest point End Pass type
(mag) Time Alt. Az. Time Alt. Az. Time Alt. Az.
25 Jun - 00:35:13 10° WSW 00:39:37 63° S 00:43:59 10° E visible
25 Jun - 02:16:38 10° W 02:20:54 48° SSW 02:25:10 10° ESE visible
25 Jun - 03:58:38 10° W 04:01:48 20° SW 04:04:59 10° SSE daylight
25 Jun - 21:30:39 10° SSW 21:33:56 20° SE 21:37:12 10° E visible
25 Jun - 23:10:33 10° WSW 23:14:52 49° SSE 23:19:09 10° E visible
26 Jun - 00:51:47 10° W 00:56:10 62° S 01:00:32 10° ESE visible
26 Jun - 02:33:18 10° W 02:37:22 36° SSW 02:41:25 10° SE visible
26 Jun - 04:16:25 10° WSW 04:18:01 12° SW 04:19:37 10° SSW daylight
26 Jun - 21:46:20 10° SSW 21:50:15 30° SSE 21:54:10 10° E visible
26 Jun - 23:26:59 10° WSW 23:31:23 59° S 23:35:45 10° E visible
27 Jun - 01:08:22 10° W 01:12:43 55° SSW 01:17:02 10° ESE visible
27 Jun - 02:50:08 10° W 02:53:45 25° SSW 02:57:21 10° SSE visible
27 Jun - 20:23:13 10° S 20:25:53 16° SE 20:28:32 10° ESE daylight
27 Jun - 22:02:27 10° SW 22:06:41 42° SSE 22:10:53 10° E visible
27 Jun - 23:43:32 10° W 23:47:57 63° S 23:52:20 10° E visible
28 Jun - 01:25:01 10° W 01:29:13 43° SSW 01:33:24 10° SE visible
28 Jun - 03:07:18 10° WSW 03:10:01 16° SW 03:12:42 10° S daylight
28 Jun - 20:38:31 10° SSW 20:42:09 24° SSE 20:45:46 10° E daylight
28 Jun - 22:18:48 10° WSW 22:23:11 54° SSE 22:27:31 10° E visible
29 Jun - 00:00:07 10° W 00:04:31 60° S 00:08:52 10° ESE visible
29 Jun - 01:41:43 10° W 01:45:38 31° SSW 01:49:33 10° SE visible
29 Jun - 19:16:22 10° SSE 19:17:53 11° SE 19:19:23 10° ESE daylight
29 Jun - 20:54:24 10° SW 20:58:32 35° SSE 21:02:36 10° E visible
29 Jun - 22:35:18 10° WSW 22:39:44 62° S 22:44:07 10° E visible
30 Jun - 00:16:43 10° W 00:21:03 50° SSW 00:25:20 10° ESE visible
30 Jun - 01:58:39 10° W 02:01:58 21° SW 02:05:17 10° SSE visible
30 Jun - 19:30:52 10° S 19:34:04 19° SE 19:37:16 10° E daylight
30 Jun - 21:10:39 10° WSW 21:14:59 48° SSE 21:19:17 10° E visible
30 Jun - 22:51:52 10° W 22:56:18 63° S 23:00:40 10° ESE visible
01 Jul - 00:33:23 10° W 00:37:31 38° SSW 00:41:37 10° SE visible
01 Jul - 02:16:13 10° WSW 02:18:12 13° SW 02:20:10 10° SSW visible
01 Jul - 19:46:29 10° SSW 19:50:24 29° SSE 19:54:16 10° E daylight
01 Jul - 21:27:04 10° WSW 21:31:30 58° S 21:35:54 10° E visible
01 Jul - 23:08:27 10° W 23:12:51 57° S 23:17:12 10° ESE visible
02 Jul - 00:50:10 10° W 00:53:54 27° SSW 00:57:36 10° SSE visible
02 Jul - 18:23:31 10° S 18:26:02 15° SE 18:28:32 10° ESE daylight
02 Jul - 20:02:33 10° SW 20:06:48 41° SSE 20:11:01 10° E daylight
02 Jul - 21:43:36 10° W 21:48:04 64° S 21:52:28 10° E visible
02 Jul - 23:25:04 10° W 23:29:21 45° SSW 23:33:35 10° SE visible
03 Jul - 01:07:16 10° WSW 01:10:11 17° SW 01:13:04 10° S visible
03 Jul - 18:38:41 10° SSW 18:42:17 23° SSE 18:45:52 10° E daylight
03 Jul - 20:18:52 10° WSW 20:23:17 53° SSE 20:27:39 10° E daylight
03 Jul - 22:00:11 10° W 22:04:38 61° S 22:09:01 10° ESE visible
03 Jul - 23:41:46 10° W 23:45:47 33° SSW 23:49:46 10° SE visible
04 Jul - 17:16:57 10° SSE 17:18:01 11° SE 17:19:05 10° ESE daylight
04 Jul - 18:54:31 10° SW 18:58:39 34° SSE 19:02:43 10° E daylight
04 Jul - 20:35:21 10° WSW 20:39:50 62° S 20:44:15 10° E daylight
04 Jul - 22:16:47 10° W 22:21:10 52° SSW 22:25:29 10° ESE visible
